| time (UTC) | temp F | wind direction | speed MPH | gust MPH | rain 1hr in | rain 24hr in | rain mn in | humidity % | barometer mb |
| 20260905170935 | 60 | 303 | 1.0 | 1.0 | 0.00 | 0.00 | 0.00 | 87 | 1018.2 |
| 20260905170431 | 60 | 312 | 1.0 | 1.0 | 0.00 | 0.00 | 0.00 | 88 | 1018.3 |
| 20260905165930 | 60 | 313 | 1.0 | 1.0 | 0.00 | 0.00 | 0.00 | 87 | 1018.4 |
| 20260905165425 | 59 | 311 | 1.0 | 2.0 | 0.00 | 0.00 | 0.00 | 89 | 1018.5 |
| 20260905164921 | 59 | 286 | 1.0 | 1.0 | 0.00 | 0.00 | 0.00 | 91 | 1018.3 |
| 20260905164420 | 59 | 306 | 2.0 | 2.0 | 0.00 | 0.00 | 0.00 | 92 | 1018.5 |
| 20260905163915 | 58 | 312 | 0.0 | 1.0 | 0.00 | 0.00 | 0.00 | 95 | 1018.2 |
| 20260905163412 | 58 | 310 | 2.0 | 2.0 | 0.00 | 0.00 | 0.00 | 98 | 1018.4 |
| 20260905162908 | 57 | 293 | 1.0 | 1.0 | 0.00 | 0.00 | 0.00 | 99 | 1018.4 |
| 20260905162402 | 57 | 308 | 0.0 | 0.0 | 0.00 | 0.00 | 0.00 | 99 | 1018.5 |
| 20260905161857 | 58 | 302 | 1.0 | 1.0 | 0.00 | 0.00 | 0.00 | 99 | 1018.3 |
| 20260905161356 | 58 | 307 | 1.0 | 1.0 | 0.00 | 0.00 | 0.00 | 99 | 1018.4 |
| 20260905160854 | 57 | 304 | 0.0 | 0.0 | 0.00 | 0.00 | 0.00 | 99 | 1018.7 |
| 20260905160349 | 57 | 310 | 1.0 | 1.0 | 0.00 | 0.00 | 0.00 | 99 | 1018.3 |
| 20260905155843 | 57 | 329 | 0.0 | 0.0 | 0.00 | 0.00 | 0.00 | 99 | 1018.5 |
| 20260905155337 | 56 | 329 | 0.0 | 0.0 | 0.00 | 0.00 | 0.00 | 99 | 1018.4 |
| 20260905154836 | 56 | 329 | 0.0 | 0.0 | 0.00 | 0.00 | 0.00 | 99 | 1018.4 |
| 20260905154332 | 56 | 328 | 0.0 | 0.0 | 0.00 | 0.00 | 0.00 | 99 | 1018.6 |
| 20260905153827 | 56 | 328 | 1.0 | 1.0 | 0.00 | 0.00 | 0.00 | 99 | 1018.4 |
| 20260905153324 | 56 | 330 | 0.0 | 0.0 | 0.00 | 0.00 | 0.00 | 99 | 1018.6 |
| 20260905152824 | 57 | 330 | 0.0 | 0.0 | 0.00 | 0.00 | 0.00 | 99 | 1018.4 |
| 20260905152322 | 56 | 330 | 0.0 | 0.0 | 0.00 | 0.00 | 0.00 | 99 | 1018.4 |
| 20260905151818 | 55 | 330 | 0.0 | 0.0 | 0.00 | 0.00 | 0.00 | 99 | 1018.6 |
| 20260905151314 | 55 | 330 | 0.0 | 0.0 | 0.00 | 0.00 | 0.00 | 99 | 1018.4 |
| 20260905150813 | 55 | 330 | 0.0 | 0.0 | 0.00 | 0.00 | 0.00 | 99 | 1018.4 |
| 20260905150308 | 55 | 330 | 0.0 | 0.0 | 0.00 | 0.00 | 0.00 | 99 | 1018.6 |
| 20260905145805 | 55 | 330 | 0.0 | 0.0 | 0.00 | 0.00 | 0.00 | 99 | 1018.4 |
| 20260905145259 | 55 | 330 | 0.0 | 0.0 | 0.00 | 0.00 | 0.00 | 99 | 1018.5 |
| 20260905144758 | 54 | 330 | 0.0 | 0.0 | 0.00 | 0.00 | 0.00 | 99 | 1018.3 |
| 20260905144254 | 54 | 330 | 0.0 | 0.0 | 0.00 | 0.00 | 0.00 | 99 | 1018.4 |
| 20260905143752 | 54 | 330 | 0.0 | 0.0 | 0.00 | 0.00 | 0.00 | 99 | 1018.3 |
| 20260905143247 | 53 | 330 | 0.0 | 0.0 | 0.00 | 0.00 | 0.00 | 99 | 1018.4 |
| 20260905142745 | 53 | 330 | 0.0 | 0.0 | 0.00 | 0.00 | 0.00 | 99 | 1018.4 |
| 20260905142240 | 53 | 330 | 0.0 | 0.0 | 0.00 | 0.00 | 0.00 | 99 | 1018.5 |
| 20260905141736 | 53 | 330 | 0.0 | 0.0 | 0.00 | 0.00 | 0.00 | 99 | 1018.4 |
| 20260905141231 | 53 | 330 | 0.0 | 0.0 | 0.00 | 0.00 | 0.00 | 99 | 1018.3 |
| 20260905140721 | 53 | 330 | 0.0 | 0.0 | 0.00 | 0.00 | 0.00 | 99 | 1018.4 |
| 20260905140220 | 53 | 330 | 0.0 | 0.0 | 0.00 | 0.00 | 0.00 | 99 | 1018.1 |
| 20260905135715 | 52 | 330 | 1.0 | 1.0 | 0.00 | 0.00 | 0.00 | 99 | 1018.2 |
| 20260905135211 | 52 | 330 | 0.0 | 0.0 | 0.00 | 0.00 | 0.00 | 99 | 1018.2 |
| 20260905134710 | 52 | 330 | 0.0 | 0.0 | 0.00 | 0.00 | 0.00 | 99 | 1018.3 |
| 20260905134210 | 52 | 330 | 0.0 | 0.0 | 0.00 | 0.00 | 0.00 | 99 | 1018.2 |
| 20260905133705 | 52 | 330 | 0.0 | 0.0 | 0.00 | 0.00 | 0.00 | 99 | 1018.2 |
| 20260905133200 | 52 | 330 | 0.0 | 0.0 | 0.00 | 0.00 | 0.00 | 99 | 1018.0 |
| 20260905132659 | 53 | 330 | 0.0 | 0.0 | 0.00 | 0.00 | 0.00 | 99 | 1018.2 |
| 20260905132154 | 53 | 330 | 0.0 | 0.0 | 0.00 | 0.00 | 0.00 | 99 | 1018.0 |
| 20260905131649 | 53 | 330 | 0.0 | 0.0 | 0.00 | 0.00 | 0.00 | 99 | 1018.0 |
| 20260905131144 | 53 | 330 | 0.0 | 0.0 | 0.00 | 0.00 | 0.00 | 99 | 1018.1 |
| 20260905130639 | 53 | 330 | 0.0 | 0.0 | 0.00 | 0.00 | 0.00 | 99 | 1017.9 |
| 20260905130138 | 54 | 330 | 0.0 | 0.0 | 0.00 | 0.00 | 0.00 | 99 | 1017.9 |
| 20260905125632 | 54 | 330 | 0.0 | 1.0 | 0.00 | 0.00 | 0.00 | 99 | 1017.9 |
| 20260905125128 | 53 | 330 | 0.0 | 0.0 | 0.00 | 0.00 | 0.00 | 99 | 1017.7 |
| 20260905124625 | 53 | 330 | 0.0 | 0.0 | 0.00 | 0.00 | 0.00 | 99 | 1017.6 |
| 20260905124121 | 53 | 330 | 0.0 | 0.0 | 0.00 | 0.00 | 0.00 | 99 | 1017.7 |
| 20260905123615 | 53 | 330 | 0.0 | 0.0 | 0.00 | 0.00 | 0.00 | 99 | 1017.9 |
| 20260905123113 | 53 | 330 | 0.0 | 0.0 | 0.00 | 0.00 | 0.00 | 99 | 1017.8 |
| 20260905122607 | 53 | 330 | 0.0 | 0.0 | 0.00 | 0.00 | 0.00 | 99 | 1017.9 |
| 20260905122107 | 54 | 330 | 0.0 | 0.0 | 0.00 | 0.00 | 0.00 | 99 | 1017.9 |
| 20260905121601 | 54 | 330 | 0.0 | 0.0 | 0.00 | 0.00 | 0.00 | 99 | 1017.7 |
| 20260905121057 | 54 | 330 | 0.0 | 0.0 | 0.00 | 0.00 | 0.00 | 99 | 1017.7 |
| 20260905120556 | 54 | 330 | 0.0 | 0.0 | 0.00 | 0.00 | 0.00 | 99 | 1017.6 |
| 20260905120051 | 54 | 330 | 0.0 | 0.0 | 0.00 | 0.00 | 0.00 | 99 | 1017.6 |
| 20260905115550 | 54 | 330 | 0.0 | 0.0 | 0.00 | 0.00 | 0.00 | 99 | 1017.9 |
| 20260905115045 | 54 | 330 | 0.0 | 0.0 | 0.00 | 0.00 | 0.00 | 99 | 1017.8 |
| 20260905114544 | 54 | 330 | 0.0 | 0.0 | 0.00 | 0.00 | 0.00 | 99 | 1017.7 |
| 20260905114043 | 54 | 330 | 0.0 | 0.0 | 0.00 | 0.00 | 0.00 | 99 | 1017.7 |
| 20260905113538 | 54 | 330 | 0.0 | 0.0 | 0.00 | 0.00 | 0.00 | 99 | 1017.8 |
| 20260905113034 | 54 | 330 | 0.0 | 0.0 | 0.00 | 0.00 | 0.00 | 99 | 1017.8 |
| 20260905112529 | 54 | 330 | 0.0 | 0.0 | 0.00 | 0.00 | 0.00 | 99 | 1017.6 |
| 20260905112024 | 54 | 330 | 0.0 | 0.0 | 0.00 | 0.00 | 0.00 | 99 | 1017.6 |
| 20260905111519 | 54 | 330 | 0.0 | 0.0 | 0.00 | 0.00 | 0.00 | 99 | 1017.7 |
| 20260905111018 | 54 | 330 | 0.0 | 0.0 | 0.00 | 0.00 | 0.00 | 99 | 1017.5 |
| 20260905110518 | 54 | 330 | 0.0 | 0.0 | 0.00 | 0.00 | 0.00 | 99 | 1017.5 |
| 20260905110013 | 53 | 330 | 0.0 | 0.0 | 0.00 | 0.00 | 0.00 | 99 | 1017.6 |
| 20260905105507 | 53 | 330 | 0.0 | 0.0 | 0.00 | 0.00 | 0.00 | 99 | 1017.5 |
| 20260905105006 | 53 | 330 | 0.0 | 0.0 | 0.00 | 0.00 | 0.00 | 99 | 1017.7 |
| 20260905104503 | 53 | 330 | 0.0 | 0.0 | 0.00 | 0.00 | 0.00 | 99 | 1017.8 |
| 20260905103957 | 53 | 330 | 0.0 | 0.0 | 0.00 | 0.00 | 0.00 | 99 | 1017.6 |
| 20260905103452 | 54 | 330 | 0.0 | 0.0 | 0.00 | 0.00 | 0.00 | 99 | 1017.7 |
| 20260905102948 | 54 | 330 | 0.0 | 0.0 | 0.00 | 0.00 | 0.00 | 99 | 1017.7 |
| 20260905102444 | 54 | 330 | 0.0 | 0.0 | 0.00 | 0.00 | 0.00 | 99 | 1017.7 |
| 20260905101939 | 54 | 330 | 0.0 | 0.0 | 0.00 | 0.00 | 0.00 | 99 | 1017.9 |
| 20260905101438 | 54 | 330 | 0.0 | 0.0 | 0.00 | 0.00 | 0.00 | 99 | 1017.7 |
| 20260905100937 | 54 | 330 | 0.0 | 0.0 | 0.00 | 0.00 | 0.00 | 99 | 1017.8 |
| 20260905100433 | 54 | 330 | 0.0 | 0.0 | 0.00 | 0.00 | 0.00 | 99 | 1017.7 |
| 20260905095932 | 55 | 330 | 0.0 | 0.0 | 0.00 | 0.00 | 0.00 | 99 | 1017.7 |
| 20260905095432 | 54 | 330 | 0.0 | 0.0 | 0.00 | 0.00 | 0.00 | 99 | 1017.9 |
| 20260905094927 | 54 | 330 | 0.0 | 0.0 | 0.00 | 0.00 | 0.00 | 99 | 1017.8 |
| 20260905094423 | 54 | 330 | 0.0 | 0.0 | 0.00 | 0.00 | 0.00 | 99 | 1017.7 |
| 20260905093922 | 55 | 330 | 0.0 | 0.0 | 0.00 | 0.00 | 0.00 | 99 | 1017.8 |
| 20260905093418 | 55 | 330 | 0.0 | 0.0 | 0.00 | 0.00 | 0.00 | 99 | 1017.7 |
| 20260905092913 | 55 | 330 | 0.0 | 0.0 | 0.00 | 0.00 | 0.00 | 99 | 1017.4 |
| 20260905092408 | 55 | 330 | 0.0 | 0.0 | 0.00 | 0.00 | 0.00 | 99 | 1017.6 |
| 20260905091903 | 55 | 330 | 0.0 | 0.0 | 0.00 | 0.00 | 0.00 | 99 | 1017.6 |
| 20260905091403 | 55 | 330 | 0.0 | 0.0 | 0.00 | 0.00 | 0.00 | 99 | 1017.6 |
| 20260905090902 | 55 | 330 | 0.0 | 0.0 | 0.00 | 0.00 | 0.00 | 99 | 1017.5 |
| 20260905090358 | 55 | 330 | 0.0 | 0.0 | 0.00 | 0.00 | 0.00 | 99 | 1017.5 |
| 20260905085856 | 54 | 330 | 0.0 | 0.0 | 0.00 | 0.00 | 0.00 | 99 | 1017.6 |
| 20260905085351 | 54 | 330 | 0.0 | 0.0 | 0.00 | 0.00 | 0.00 | 99 | 1017.6 |
| 20260905084848 | 54 | 330 | 0.0 | 0.0 | 0.00 | 0.00 | 0.00 | 99 | 1017.5 |
| 20260905084346 | 54 | 330 | 0.0 | 0.0 | 0.00 | 0.00 | 0.00 | 99 | 1017.4 |
| 20260905083841 | 54 | 330 | 0.0 | 0.0 | 0.00 | 0.00 | 0.00 | 99 | 1017.4 |
| 20260905083337 | 54 | 330 | 0.0 | 0.0 | 0.00 | 0.00 | 0.00 | 99 | 1017.4 |
| 20260905082832 | 54 | 330 | 0.0 | 0.0 | 0.00 | 0.00 | 0.00 | 99 | 1017.4 |
| 20260905082328 | 54 | 330 | 0.0 | 0.0 | 0.00 | 0.00 | 0.00 | 99 | 1017.4 |
| 20260905081823 | 54 | 330 | 0.0 | 0.0 | 0.00 | 0.00 | 0.00 | 99 | 1017.3 |
| 20260905081318 | 54 | 330 | 0.0 | 0.0 | 0.00 | 0.00 | 0.00 | 99 | 1017.4 |
| 20260905080817 | 55 | 330 | 0.0 | 0.0 | 0.00 | 0.00 | 0.00 | 99 | 1017.5 |
| 20260905080312 | 55 | 330 | 0.0 | 0.0 | 0.00 | 0.00 | 0.00 | 99 | 1017.3 |
| 20260905075811 | 55 | 330 | 0.0 | 0.0 | 0.00 | 0.00 | 0.00 | 99 | 1017.4 |
| 20260905075311 | 55 | 330 | 0.0 | 0.0 | 0.00 | 0.00 | 0.00 | 99 | 1017.3 |
| 20260905074809 | 55 | 330 | 0.0 | 0.0 | 0.00 | 0.00 | 0.00 | 99 | 1017.4 |
| 20260905074306 | 55 | 330 | 0.0 | 0.0 | 0.00 | 0.00 | 0.00 | 99 | 1017.0 |
| 20260905073801 | 55 | 330 | 0.0 | 0.0 | 0.00 | 0.00 | 0.00 | 99 | 1017.3 |
| 20260905073256 | 55 | 330 | 0.0 | 0.0 | 0.00 | 0.00 | 0.00 | 99 | 1017.4 |
| 20260905072756 | 55 | 330 | 0.0 | 0.0 | 0.00 | 0.00 | 0.00 | 99 | 1017.4 |
| 20260905072251 | 55 | 330 | 0.0 | 0.0 | 0.00 | 0.00 | 0.00 | 99 | 1017.3 |
| 20260905071748 | 55 | 330 | 0.0 | 0.0 | 0.00 | 0.00 | 0.00 | 99 | 1017.2 |
| 20260905071243 | 55 | 330 | 0.0 | 0.0 | 0.00 | 0.00 | 0.00 | 99 | 1017.4 |
| 20260905070738 | 55 | 330 | 0.0 | 0.0 | 0.00 | 0.00 | 0.00 | 99 | 1017.2 |
| 20260905070235 | 55 | 330 | 0.0 | 0.0 | 0.00 | 0.00 | 0.00 | 99 | 1017.1 |
| 20260905065733 | 55 | 330 | 0.0 | 0.0 | 0.00 | 0.21 | 0.21 | 99 | 1017.2 |
| 20260905065227 | 55 | 330 | 0.0 | 0.0 | 0.00 | 0.21 | 0.21 | 99 | 1016.9 |
| 20260905064722 | 55 | 330 | 0.0 | 0.0 | 0.00 | 0.21 | 0.21 | 99 | 1016.8 |
| 20260905064218 | 55 | 334 | 0.0 | 0.0 | 0.00 | 0.21 | 0.21 | 99 | 1016.9 |
| 20260905063716 | 55 | 334 | 0.0 | 0.0 | 0.00 | 0.21 | 0.21 | 99 | 1017.0 |
| 20260905063213 | 55 | 332 | 0.0 | 0.0 | 0.00 | 0.21 | 0.21 | 99 | 1016.7 |
| 20260905062708 | 54 | 332 | 0.0 | 0.0 | 0.00 | 0.21 | 0.21 | 99 | 1016.9 |
| 20260905062208 | 54 | 332 | 0.0 | 0.0 | 0.00 | 0.21 | 0.21 | 99 | 1016.8 |
| 20260905061702 | 54 | 332 | 0.0 | 0.0 | 0.00 | 0.21 | 0.21 | 99 | 1016.7 |
| 20260905061156 | 54 | 332 | 0.0 | 0.0 | 0.00 | 0.21 | 0.21 | 99 | 1016.7 |
| 20260905060652 | 55 | 332 | 0.0 | 0.0 | 0.00 | 0.21 | 0.21 | 99 | 1016.4 |
| 20260905060148 | 55 | 332 | 0.0 | 0.0 | 0.00 | 0.21 | 0.21 | 99 | 1016.5 |
| 20260905055646 | 55 | 332 | 0.0 | 0.0 | 0.00 | 0.21 | 0.21 | 99 | 1016.5 |
| 20260905055142 | 55 | 332 | 0.0 | 0.0 | 0.00 | 0.21 | 0.21 | 99 | 1016.6 |
| 20260905054637 | 55 | 332 | 0.0 | 0.0 | 0.00 | 0.21 | 0.21 | 99 | 1016.7 |
| 20260905054133 | 55 | 332 | 0.0 | 0.0 | 0.00 | 0.21 | 0.21 | 99 | 1016.6 |
| 20260905053633 | 55 | 332 | 0.0 | 0.0 | 0.00 | 0.21 | 0.21 | 99 | 1016.8 |
| 20260905053128 | 55 | 332 | 0.0 | 0.0 | 0.00 | 0.21 | 0.21 | 99 | 1016.6 |
| 20260905052627 | 55 | 332 | 0.0 | 0.0 | 0.00 | 0.21 | 0.21 | 99 | 1016.9 |
| 20260905052122 | 55 | 332 | 0.0 | 0.0 | 0.00 | 0.21 | 0.21 | 99 | 1016.9 |
| 20260905051617 | 55 | 332 | 0.0 | 0.0 | 0.00 | 0.21 | 0.21 | 99 | 1016.7 |
| 20260905051114 | 55 | 332 | 0.0 | 0.0 | 0.00 | 0.21 | 0.21 | 99 | 1016.9 |
| 20260905050610 | 55 | 332 | 0.0 | 0.0 | 0.00 | 0.21 | 0.21 | 99 | 1016.6 |
| 20260905050106 | 55 | 332 | 0.0 | 0.0 | 0.00 | 0.21 | 0.21 | 99 | 1016.6 |
| 20260905045601 | 55 | 332 | 0.0 | 0.0 | 0.00 | 0.21 | 0.21 | 99 | 1016.6 |
| 20260905045056 | 55 | 332 | 0.0 | 0.0 | 0.00 | 0.21 | 0.21 | 99 | 1016.4 |
| 20260905044556 | 54 | 332 | 0.0 | 0.0 | 0.00 | 0.21 | 0.21 | 99 | 1016.5 |
| 20260905044050 | 54 | 332 | 0.0 | 0.0 | 0.00 | 0.21 | 0.21 | 99 | 1016.6 |
| 20260905043549 | 54 | 332 | 0.0 | 0.0 | 0.00 | 0.21 | 0.21 | 99 | 1016.4 |
| 20260905043045 | 54 | 332 | 0.0 | 0.0 | 0.00 | 0.21 | 0.21 | 99 | 1016.6 |
| 20260905042544 | 54 | 332 | 0.0 | 0.0 | 0.00 | 0.21 | 0.21 | 99 | 1016.4 |
| 20260905042039 | 54 | 332 | 0.0 | 0.0 | 0.00 | 0.21 | 0.21 | 99 | 1016.2 |
| 20260905041534 | 54 | 332 | 0.0 | 0.0 | 0.00 | 0.21 | 0.21 | 99 | 1016.6 |
| 20260905041030 | 54 | 332 | 0.0 | 0.0 | 0.00 | 0.21 | 0.21 | 99 | 1016.5 |
| 20260905040529 | 54 | 332 | 0.0 | 0.0 | 0.00 | 0.21 | 0.21 | 99 | 1016.3 |
| 20260905040028 | 54 | 332 | 0.0 | 0.0 | 0.00 | 0.21 | 0.21 | 99 | 1016.2 |
| 20260905035523 | 54 | 332 | 0.0 | 0.0 | 0.00 | 0.21 | 0.21 | 99 | 1016.2 |
| 20260905035020 | 55 | 332 | 0.0 | 0.0 | 0.00 | 0.21 | 0.21 | 99 | 1016.3 |
| 20260905034516 | 55 | 332 | 0.0 | 0.0 | 0.00 | 0.21 | 0.21 | 99 | 1016.0 |
| 20260905034015 | 55 | 332 | 0.0 | 0.0 | 0.00 | 0.21 | 0.21 | 99 | 1016.1 |
| 20260905033509 | 55 | 332 | 0.0 | 0.0 | 0.00 | 0.21 | 0.21 | 99 | 1016.1 |
| 20260905033005 | 56 | 332 | 0.0 | 0.0 | 0.00 | 0.21 | 0.21 | 99 | 1016.1 |
| 20260905032500 | 56 | 332 | 0.0 | 0.0 | 0.00 | 0.21 | 0.21 | 99 | 1016.3 |
| 20260905031954 | 56 | 332 | 0.0 | 0.0 | 0.00 | 0.21 | 0.21 | 99 | 1016.0 |
| 20260905031450 | 56 | 332 | 0.0 | 0.0 | 0.00 | 0.21 | 0.21 | 99 | 1016.0 |
| 20260905030945 | 56 | 332 | 0.0 | 0.0 | 0.00 | 0.21 | 0.21 | 99 | 1016.0 |
| 20260905030441 | 56 | 332 | 0.0 | 0.0 | 0.00 | 0.21 | 0.21 | 99 | 1015.8 |
| 20260905025939 | 56 | 332 | 0.0 | 0.0 | 0.00 | 0.21 | 0.21 | 99 | 1015.8 |
| 20260905025435 | 57 | 332 | 0.0 | 0.0 | 0.00 | 0.21 | 0.21 | 99 | 1016.0 |
| 20260905024932 | 57 | 332 | 0.0 | 0.0 | 0.00 | 0.21 | 0.21 | 99 | 1015.9 |
| 20260905024432 | 57 | 332 | 0.0 | 0.0 | 0.00 | 0.21 | 0.21 | 98 | 1015.7 |
| 20260905023927 | 57 | 332 | 0.0 | 0.0 | 0.00 | 0.21 | 0.21 | 98 | 1015.8 |
| 20260905023422 | 58 | 332 | 0.0 | 0.0 | 0.00 | 0.21 | 0.21 | 97 | 1015.8 |
| 20260905022921 | 58 | 332 | 0.0 | 0.0 | 0.00 | 0.21 | 0.21 | 96 | 1015.8 |
| 20260905022417 | 58 | 332 | 0.0 | 0.0 | 0.00 | 0.21 | 0.21 | 96 | 1015.9 |
| 20260905021912 | 59 | 332 | 0.0 | 0.0 | 0.00 | 0.21 | 0.21 | 96 | 1015.9 |
| 20260905021412 | 59 | 332 | 0.0 | 0.0 | 0.00 | 0.21 | 0.21 | 95 | 1015.7 |
| 20260905020907 | 59 | 332 | 0.0 | 0.0 | 0.00 | 0.21 | 0.21 | 95 | 1015.8 |
| 20260905020407 | 59 | 332 | 0.0 | 0.0 | 0.00 | 0.21 | 0.21 | 94 | 1015.9 |
| 20260905015906 | 60 | 332 | 0.0 | 0.0 | 0.00 | 0.21 | 0.21 | 94 | 1015.7 |
| 20260905015405 | 60 | 332 | 0.0 | 0.0 | 0.00 | 0.21 | 0.21 | 94 | 1015.7 |
| 20260905014904 | 60 | 285 | 0.0 | 0.0 | 0.00 | 0.21 | 0.21 | 94 | 1015.5 |
| 20260905014400 | 60 | 299 | 0.0 | 0.0 | 0.00 | 0.21 | 0.21 | 94 | 1015.4 |
| 20260905013855 | 60 | 299 | 0.0 | 0.0 | 0.00 | 0.21 | 0.21 | 95 | 1015.4 |
| 20260905013351 | 60 | 299 | 0.0 | 0.0 | 0.00 | 0.21 | 0.21 | 95 | 1015.5 |
| 20260905012846 | 60 | 299 | 0.0 | 0.0 | 0.00 | 0.21 | 0.21 | 95 | 1015.3 |
| 20260905012341 | 60 | 299 | 0.0 | 0.0 | 0.00 | 0.21 | 0.21 | 96 | 1015.4 |
| 20260905011838 | 60 | 299 | 0.0 | 0.0 | 0.00 | 0.21 | 0.21 | 96 | 1015.3 |
| 20260905011334 | 60 | 299 | 0.0 | 0.0 | 0.00 | 0.21 | 0.21 | 95 | 1015.2 |
| 20260905010829 | 60 | 299 | 0.0 | 0.0 | 0.00 | 0.21 | 0.21 | 95 | 1015.4 |
| 20260905010324 | 60 | 299 | 0.0 | 0.0 | 0.00 | 0.21 | 0.21 | 96 | 1015.2 |
| 20260905005820 | 60 | 299 | 0.0 | 0.0 | 0.00 | 0.21 | 0.21 | 96 | 1015.1 |
| 20260905005316 | 60 | 299 | 0.0 | 0.0 | 0.00 | 0.21 | 0.21 | 95 | 1015.2 |
| 20260905004810 | 60 | 298 | 0.0 | 0.0 | 0.00 | 0.21 | 0.21 | 95 | 1015.2 |
| 20260905004305 | 60 | 298 | 0.0 | 0.0 | 0.00 | 0.21 | 0.21 | 95 | 1015.1 |
| 20260905003800 | 60 | 298 | 0.0 | 0.0 | 0.00 | 0.21 | 0.21 | 95 | 1015.2 |
| 20260905003256 | 61 | 300 | 0.0 | 0.0 | 0.00 | 0.21 | 0.21 | 94 | 1015.1 |
| 20260905002752 | 61 | 299 | 0.0 | 0.0 | 0.00 | 0.21 | 0.21 | 94 | 1015.1 |
| 20260905002251 | 62 | 316 | 0.0 | 0.0 | 0.00 | 0.21 | 0.21 | 95 | 1015.2 |
| 20260905001746 | 62 | 316 | 0.0 | 0.0 | 0.00 | 0.21 | 0.21 | 95 | 1015.3 |
| 20260905001245 | 61 | 316 | 0.0 | 0.0 | 0.00 | 0.21 | 0.21 | 94 | 1014.9 |
| 20260905000741 | 61 | 316 | 0.0 | 0.0 | 0.00 | 0.21 | 0.21 | 94 | 1015.2 |
| 20260905000237 | 61 | 316 | 0.0 | 0.0 | 0.00 | 0.21 | 0.21 | 93 | 1015.0 |
| 20260904235732 | 61 | 316 | 0.0 | 0.0 | 0.00 | 0.21 | 0.21 | 93 | 1015.3 |
| 20260904235226 | 61 | 316 | 0.0 | 0.0 | 0.00 | 0.21 | 0.21 | 92 | 1015.2 |
| 20260904234721 | 61 | 316 | 0.0 | 0.0 | 0.00 | 0.21 | 0.21 | 92 | 1015.2 |
| 20260904234216 | 61 | 316 | 0.0 | 0.0 | 0.00 | 0.21 | 0.21 | 94 | 1015.2 |
| 20260904233712 | 61 | 303 | 0.0 | 0.0 | 0.00 | 0.21 | 0.21 | 93 | 1015.1 |
| 20260904233208 | 61 | 303 | 0.0 | 0.0 | 0.00 | 0.21 | 0.21 | 93 | 1015.5 |
| 20260904232705 | 61 | 323 | 0.0 | 0.0 | 0.00 | 0.21 | 0.21 | 94 | 1015.1 |
| 20260904232201 | 61 | 347 | 0.0 | 1.0 | 0.00 | 0.21 | 0.21 | 94 | 1015.1 |
| 20260904231656 | 61 | 332 | 0.0 | 0.0 | 0.00 | 0.21 | 0.21 | 95 | 1015.0 |
| 20260904231151 | 60 | 315 | 0.0 | 0.0 | 0.00 | 0.21 | 0.21 | 97 | 1014.9 |
| 20260904230651 | 60 | 315 | 0.0 | 0.0 | 0.00 | 0.21 | 0.21 | 98 | 1014.9 |
| 20260904230146 | 60 | 332 | 0.0 | 0.0 | 0.00 | 0.21 | 0.21 | 99 | 1014.7 |
| 20260904225644 | 59 | 302 | 0.0 | 0.0 | 0.00 | 0.21 | 0.21 | 99 | 1014.9 |
| 20260904225139 | 58 | 331 | 0.0 | 1.0 | 0.00 | 0.21 | 0.21 | 99 | 1014.9 |
| 20260904224633 | 58 | 332 | 0.0 | 0.0 | 0.00 | 0.21 | 0.21 | 99 | 1014.9 |
| 20260904224127 | 58 | 342 | 0.0 | 1.0 | 0.05 | 0.21 | 0.21 | 99 | 1014.9 |
| 20260904223627 | 58 | 328 | 0.0 | 0.0 | 0.05 | 0.21 | 0.21 | 99 | 1014.9 |
| 20260904223122 | 58 | 319 | 0.0 | 0.0 | 0.00 | 0.20 | 0.20 | 99 | 1015.2 |
| 20260904222619 | 58 | 319 | 0.0 | 0.0 | 0.00 | 0.20 | 0.20 | 98 | 1015.2 |
| 20260904222114 | 57 | 322 | 0.0 | 0.0 | 0.07 | 0.20 | 0.20 | 98 | 1015.1 |
| 20260904221613 | 57 | 322 | 0.0 | 0.0 | 0.07 | 0.20 | 0.20 | 98 | 1015.1 |
| 20260904221113 | 57 | 323 | 0.0 | 0.0 | 0.07 | 0.20 | 0.20 | 97 | 1015.0 |
| 20260904220608 | 57 | 307 | 0.0 | 1.0 | 0.00 | 0.19 | 0.19 | 97 | 1015.0 |
| 20260904220104 | 57 | 2 | 1.0 | 1.0 | 0.05 | 0.19 | 0.19 | 97 | 1014.8 |
| 20260904215604 | 58 | 314 | 0.0 | 0.0 | 0.12 | 0.19 | 0.19 | 97 | 1014.9 |
| 20260904215100 | 58 | 347 | 1.0 | 1.0 | 0.17 | 0.19 | 0.19 | 97 | 1014.7 |
| 20260904214554 | 58 | 319 | 0.0 | 0.0 | 0.17 | 0.17 | 0.17 | 96 | 1014.9 |
| 20260904214050 | 58 | 319 | 0.0 | 0.0 | 0.31 | 0.16 | 0.16 | 95 | 1014.7 |
| 20260904213548 | 59 | 342 | 1.0 | 1.0 | 0.24 | 0.15 | 0.15 | 94 | 1014.5 |
| 20260904213045 | 60 | 352 | 0.0 | 1.0 | 0.19 | 0.11 | 0.11 | 93 | 1014.8 |
| 20260904212544 | 61 | 339 | 0.0 | 1.0 | 0.24 | 0.11 | 0.11 | 90 | 1014.3 |
| 20260904212040 | 62 | 303 | 0.0 | 1.0 | 0.05 | 0.08 | 0.08 | 85 | 1014.5 |
| 20260904211539 | 63 | 312 | 0.0 | 0.0 | 0.00 | 0.07 | 0.07 | 83 | 1014.3 |
| 20260904211035 | 63 | 308 | 0.0 | 0.0 | 0.00 | 0.07 | 0.07 | 78 | 1014.3 |
| 20260904210534 | 64 | 302 | 1.0 | 2.0 | 0.00 | 0.07 | 0.07 | 74 | 1014.0 |
| 20260904210030 | 65 | 310 | 1.0 | 2.0 | 0.00 | 0.07 | 0.07 | 75 | 1013.9 |
| 20260904205526 | 65 | 305 | 0.0 | 1.0 | 0.00 | 0.07 | 0.07 | 72 | 1013.8 |
| 20260904205022 | 65 | 313 | 0.0 | 0.0 | 0.00 | 0.07 | 0.07 | 71 | 1014.0 |
| 20260904204518 | 65 | 309 | 0.0 | 0.0 | 0.00 | 0.07 | 0.07 | 73 | 1014.0 |
| 20260904204014 | 65 | 304 | 2.0 | 2.0 | 0.00 | 0.07 | 0.07 | 71 | 1013.7 |
| 20260904203509 | 65 | 298 | 1.0 | 3.0 | 0.00 | 0.07 | 0.07 | 71 | 1013.8 |
| 20260904203006 | 65 | 311 | 1.0 | 1.0 | 0.00 | 0.07 | 0.07 | 71 | 1013.7 |
| 20260904202501 | 65 | 297 | 1.0 | 1.0 | 0.00 | 0.07 | 0.07 | 70 | 1013.7 |
| 20260904201957 | 66 | 226 | 0.0 | 1.0 | 0.00 | 0.07 | 0.07 | 69 | 1013.7 |
| 20260904201452 | 66 | 334 | 1.0 | 2.0 | 0.00 | 0.07 | 0.07 | 70 | 1013.9 |
| 20260904200948 | 67 | 282 | 0.0 | 1.0 | 0.00 | 0.07 | 0.07 | 70 | 1013.9 |
| 20260904200446 | 66 | 348 | 1.0 | 2.0 | 0.00 | 0.07 | 0.07 | 71 | 1013.9 |
| 20260904195941 | 65 | 305 | 0.0 | 0.0 | 0.00 | 0.07 | 0.07 | 75 | 1013.9 |
| 20260904195439 | 66 | 296 | 2.0 | 3.0 | 0.00 | 0.07 | 0.07 | 71 | 1013.8 |
| 20260904194938 | 68 | 98 | 1.0 | 2.0 | 0.00 | 0.07 | 0.07 | 68 | 1013.9 |
| 20260904194433 | 66 | 311 | 1.0 | 1.0 | 0.00 | 0.07 | 0.07 | 70 | 1013.7 |
| 20260904193928 | 65 | 337 | 0.0 | 1.0 | 0.00 | 0.07 | 0.07 | 66 | 1014.0 |
| 20260904193424 | 65 | 107 | 2.0 | 2.0 | 0.00 | 0.07 | 0.07 | 65 | 1014.1 |
| 20260904192919 | 65 | 31 | 1.0 | 2.0 | 0.00 | 0.07 | 0.07 | 66 | 1014.0 |
| 20260904192414 | 66 | 305 | 0.0 | 1.0 | 0.00 | 0.07 | 0.07 | 64 | 1014.0 |
| 20260904191910 | 66 | 290 | 1.0 | 1.0 | 0.00 | 0.07 | 0.07 | 65 | 1014.2 |
| 20260904191407 | 66 | 304 | 0.0 | 0.0 | 0.00 | 0.07 | 0.07 | 65 | 1014.2 |
| 20260904190903 | 66 | 288 | 1.0 | 1.0 | 0.00 | 0.07 | 0.07 | 66 | 1014.2 |
| 20260904190358 | 66 | 248 | 1.0 | 1.0 | 0.00 | 0.07 | 0.07 | 67 | 1014.4 |
| 20260904185855 | 65 | 234 | 1.0 | 2.0 | 0.00 | 0.07 | 0.07 | 64 | 1014.0 |
| 20260904185350 | 66 | 262 | 1.0 | 1.0 | 0.00 | 0.07 | 0.07 | 67 | 1014.4 |
| 20260904184849 | 65 | 289 | 1.0 | 1.0 | 0.00 | 0.07 | 0.07 | 66 | 1014.1 |
| 20260904184344 | 64 | 327 | 0.0 | 0.0 | 0.00 | 0.07 | 0.07 | 69 | 1014.0 |
| 20260904183840 | 65 | 73 | 2.0 | 2.0 | 0.00 | 0.07 | 0.07 | 67 | 1014.0 |
| 20260904183335 | 64 | 347 | 0.0 | 1.0 | 0.00 | 0.07 | 0.07 | 69 | 1014.0 |
| 20260904182830 | 64 | 38 | 1.0 | 2.0 | 0.00 | 0.07 | 0.07 | 70 | 1014.0 |
| 20260904182325 | 66 | 304 | 0.0 | 0.0 | 0.00 | 0.07 | 0.07 | 73 | 1014.0 |
| 20260904181821 | 65 | 303 | 0.0 | 0.0 | 0.00 | 0.07 | 0.07 | 72 | 1014.1 |
| 20260904181320 | 64 | 302 | 0.0 | 0.0 | 0.00 | 0.07 | 0.07 | 75 | 1013.9 |
| 20260904180816 | 64 | 311 | 0.0 | 0.0 | 0.00 | 0.07 | 0.07 | 74 | 1013.9 |
| 20260904180311 | 65 | 319 | 0.0 | 0.0 | 0.00 | 0.07 | 0.07 | 74 | 1013.9 |
| 20260904175810 | 64 | 227 | 1.0 | 1.0 | 0.00 | 0.07 | 0.07 | 73 | 1013.9 |
| 20260904175308 | 63 | 312 | 0.0 | 1.0 | 0.00 | 0.07 | 0.07 | 75 | 1013.8 |
| 20260904174803 | 63 | 316 | 0.0 | 1.0 | 0.00 | 0.07 | 0.07 | 80 | 1013.9 |
| 20260904174259 | 63 | 152 | 1.0 | 1.0 | 0.00 | 0.07 | 0.07 | 74 | 1013.8 |
| 20260904173755 | 63 | 308 | 0.0 | 1.0 | 0.00 | 0.07 | 0.07 | 75 | 1013.8 |
| 20260904173250 | 63 | 336 | 0.0 | 1.0 | 0.00 | 0.07 | 0.07 | 75 | 1013.8 |
| 20260904172746 | 62 | 324 | 1.0 | 1.0 | 0.00 | 0.07 | 0.07 | 79 | 1013.6 |
| 20260904172245 | 62 | 320 | 1.0 | 1.0 | 0.00 | 0.07 | 0.07 | 83 | 1013.9 |
| 20260904171740 | 61 | 349 | 1.0 | 1.0 | 0.00 | 0.07 | 0.07 | 82 | 1013.8 |